IU2RPR-3 Weather Reports


time (UTC)temp
C
wind
direction
speed
KPH
gust
KPH
rain 1hr
cm
rain 24hr
cm
rain mn
cm
humidity
%
barometer
mb
20260902203131 24 0.0 0.0 0.00 0.00 0.00 58 1016.4
20260902201130 24 0.0 0.0 0.00 0.00 0.00 59 1016.5
20260902195128 25 0.0 0.0 0.00 0.00 0.00 58 1016.3
20260902193127 25 0.0 0.0 0.00 0.00 0.00 57 1016.1
20260902191126 26 0.0 0.0 0.00 0.00 0.00 54 1016.0
20260902185124 26 0.0 0.0 0.00 0.00 0.00 54 1015.7
20260902183124 27 0.0 0.0 0.00 0.00 0.00 50 1015.4
20260902181122 27 0.0 0.0 0.00 0.00 0.00 49 1015.2
20260902175120 27 0.0 0.0 0.00 0.00 0.00 49 1015.1
20260902174442 28 0.0 0.0 0.00 0.00 0.00 47 1015.0
20260902172441 31 0.0 0.0 0.00 0.00 0.00 41 1014.8
20260902170439 28 0.0 0.0 0.00 0.00 0.00 47 1014.9
20260902164437 30 0.0 0.0 0.00 0.00 0.00 42 1014.7
20260902162436 31 0.0 0.0 0.00 0.00 0.00 40 1014.8
20260902160433 33 0.0 0.0 0.00 0.00 0.00 36 1014.8
20260902154429 32 0.0 0.0 0.00 0.00 0.00 37 1015.1
20260902152427 32 0.0 0.0 0.00 0.00 0.00 39 1015.1
20260902150425 32 0.0 0.0 0.00 0.00 0.00 39 1015.3
20260902144423 31 0.0 0.0 0.00 0.00 0.00 41 1015.6
20260902142422 32 0.0 0.0 0.00 0.00 0.00 40 1015.6
20260902140420 30 0.0 0.0 0.00 0.00 0.00 42 1016.0
20260902134417 30 0.0 0.0 0.00 0.00 0.00 41 1016.2
20260902132416 30 0.0 0.0 0.00 0.00 0.00 43 1016.5
20260902130414 30 0.0 0.0 0.00 0.00 0.00 44 1016.8
20260902124412 30 0.0 0.0 0.00 0.00 0.00 44 1017.0
20260902122410 31 0.0 0.0 0.00 0.00 0.00 43 1017.0
20260902120410 28 0.0 0.0 0.00 0.00 0.00 46 1017.6
20260902114407 30 0.0 0.0 0.00 0.00 0.00 45 1017.6
20260902112406 30 0.0 0.0 0.00 0.00 0.00 44 1017.6
20260902110404 28 0.0 0.0 0.00 0.00 0.00 46 1017.9
20260902104403 27 0.0 0.0 0.00 0.00 0.00 46 1018.0
20260902102401 27 0.0 0.0 0.00 0.00 0.00 45 1018.2
20260902100357 26 0.0 0.0 0.00 0.00 0.00 46 1018.5
20260902094349 26 0.0 0.0 0.00 0.00 0.00 47 1018.5
20260902092347 26 0.0 0.0 0.00 0.00 0.00 48 1018.6
20260902090346 26 0.0 0.0 0.00 0.00 0.00 47 1018.6
20260902084344 26 0.0 0.0 0.00 0.00 0.00 49 1018.8
20260902082343 25 0.0 0.0 0.00 0.00 0.00 53 1018.8
20260902080342 25 0.0 0.0 0.00 0.00 0.00 52 1018.7
20260902074341 25 0.0 0.0 0.00 0.00 0.00 55 1018.6
20260902072340 23 0.0 0.0 0.00 0.00 0.00 59 1018.6
20260902070338 23 0.0 0.0 0.00 0.00 0.00 63 1018.5
20260902064337 22 0.0 0.0 0.00 0.00 0.00 66 1018.6
20260902062336 21 0.0 0.0 0.00 0.00 0.00 67 1018.6
20260902060334 21 0.0 0.0 0.00 0.00 0.00 69 1018.7
20260902054333 21 0.0 0.0 0.00 0.00 0.00 71 1018.5
20260902052332 21 0.0 0.0 0.00 0.00 0.00 72 1018.3
20260902050331 20 0.0 0.0 0.00 0.00 0.00 73 1018.3
20260902044329 21 0.0 0.0 0.00 0.00 0.00 72 1018.1
20260902042328 20 0.0 0.0 0.00 0.00 0.00 73 1018.1
20260902040327 21 0.0 0.0 0.00 0.00 0.00 71 1018.0
20260902034326 21 0.0 0.0 0.00 0.00 0.00 73 1017.9
20260902032324 21 0.0 0.0 0.00 0.00 0.00 73 1017.9
20260902030323 21 0.0 0.0 0.00 0.00 0.00 71 1017.9
20260902024322 21 0.0 0.0 0.00 0.00 0.00 71 1017.9
20260902022321 21 0.0 0.0 0.00 0.00 0.00 70 1017.7
20260902020320 21 0.0 0.0 0.00 0.00 0.00 70 1017.7
20260902014318 22 0.0 0.0 0.00 0.00 0.00 70 1017.7
20260902012317 21 0.0 0.0 0.00 0.00 0.00 71 1017.7
20260902010316 22 0.0 0.0 0.00 0.00 0.00 70 1017.7
20260902004314 22 0.0 0.0 0.00 0.00 0.00 70 1017.8
20260902002313 22 0.0 0.0 0.00 0.00 0.00 69 1017.7
20260902000312 22 0.0 0.0 0.00 0.00 0.00 69 1017.6
20260901234311 22 0.0 0.0 0.00 0.00 0.00 68 1017.7
20260901232309 22 0.0 0.0 0.00 0.00 0.00 67 1017.7
20260901230308 22 0.0 0.0 0.00 0.00 0.00 67 1017.7
20260901224307 23 0.0 0.0 0.00 0.00 0.00 65 1017.7
20260901222306 23 0.0 0.0 0.00 0.00 0.00 65 1017.6
20260901220305 23 0.0 0.0 0.00 0.00 0.00 65 1017.6
20260901214303 23 0.0 0.0 0.00 0.00 0.00 64 1017.6
20260901212305 23 0.0 0.0 0.00 0.00 0.00 63 1017.5
20260901210301 23 0.0 0.0 0.00 0.00 0.00 63 1017.5